Location: Bushey
(51.6333°N, 0.3667°W)
Time: 17:52:07
(UTC+00:00)

Cosmos 2369 Rocket - Pass Details

Date: 03 March 2021
Orbit: 829 x 852 km, 71.0° (Epoch: 16 April)

Event Time Altitude Azimuth Distance (km) Brightness Sun altitude
Rises 19:42:34 0° 325° (NW) 3,383 6.1 -18.8°
Reaches altitude 10° 19:46:25 10° 352° (N) 2,448 4.9 -19.4°
Maximum altitude 19:49:09 14° 21° (NNE) 2,199 4.3 -19.8°
Enters shadow 19:51:06 12° 43° (NE) 2,328 4.2 -20.1°
